GW7083 Weather Reports


time (UTC)temp
F
wind
direction
speed
knots
gust
knots
rain 1hr
in
rain 24hr
in
rain mn
in
humidity
%
barometer
mb
20260906052404 65 82 0.0 0.0 0.00 0.00 0.00 92 1017.4
20260906051901 66 81 0.0 0.0 0.00 0.00 0.00 92 1017.3
20260906051400 66 82 0.0 0.0 0.00 0.00 0.00 92 1017.4
20260906050856 66 81 0.0 0.0 0.00 0.00 0.00 92 1017.5
20260906050350 66 81 0.0 0.0 0.00 0.00 0.00 92 1017.5
20260906045850 66 81 0.0 0.0 0.00 0.00 0.00 92 1017.8
20260906045349 66 82 0.0 0.0 0.00 0.00 0.00 92 1017.4
20260906044846 66 89 0.0 0.0 0.00 0.00 0.00 92 1017.7
20260906044345 66 82 0.0 0.0 0.00 0.00 0.00 92 1017.7
20260906043841 66 82 0.0 0.0 0.00 0.00 0.00 92 1017.5
20260906043337 66 81 0.0 0.0 0.00 0.00 0.00 92 1017.4
20260906042832 66 90 0.0 0.0 0.00 0.00 0.00 92 1017.5
20260906042331 66 83 0.0 0.0 0.00 0.00 0.00 92 1017.4
20260906041827 67 81 0.0 0.0 0.00 0.00 0.00 92 1017.4
20260906041322 67 91 0.0 0.0 0.00 0.00 0.00 92 1017.3
20260906040822 67 82 0.0 0.0 0.00 0.00 0.00 92 1017.5
20260906040317 67 69 0.0 0.0 0.00 0.00 0.00 92 1017.2
20260906035813 67 82 0.0 0.0 0.00 0.54 0.54 92 1017.4
20260906035308 67 91 0.0 0.0 0.00 0.54 0.54 92 1017.4
20260906034804 67 89 0.0 0.0 0.00 0.54 0.54 92 1017.5
20260906034303 67 80 0.0 0.0 0.00 0.54 0.54 92 1017.9
20260906033759 67 91 0.0 0.0 0.00 0.54 0.54 92 1017.7
20260906033258 67 81 0.0 0.0 0.00 0.54 0.54 92 1018.1
20260906032755 67 81 0.0 0.0 0.00 0.54 0.54 92 1018.0
20260906032255 67 81 0.0 0.0 0.00 0.54 0.54 92 1018.2
20260906031751 67 81 0.0 0.0 0.00 0.54 0.54 92 1017.8
20260906031247 67 82 0.0 0.0 0.00 0.54 0.54 92 1018.3
20260906030746 67 81 0.0 0.0 0.00 0.54 0.54 92 1018.1
20260906030241 67 81 0.0 0.0 0.00 0.54 0.54 92 1018.4
20260906025740 67 81 0.0 0.0 0.00 0.54 0.54 92 1018.0
20260906025235 67 88 0.0 0.0 0.00 0.54 0.54 92 1017.9
20260906024734 67 81 0.0 0.0 0.00 0.54 0.54 92 1018.1
20260906024233 67 92 0.0 0.0 0.00 0.54 0.54 92 1017.9
20260906023729 67 81 0.0 0.0 0.00 0.54 0.54 92 1017.8
20260906023225 68 100 0.0 0.0 0.00 0.54 0.54 92 1018.2
20260906022720 68 80 0.0 0.0 0.00 0.54 0.54 92 1017.5
20260906022215 68 82 0.0 0.0 0.00 0.54 0.54 92 1017.5
20260906021711 68 81 0.0 0.0 0.00 0.54 0.54 92 1017.4
20260906021210 68 92 0.0 0.0 0.00 0.54 0.54 92 1017.4
20260906020705 68 81 0.0 0.0 0.00 0.54 0.54 92 1017.4
20260906020200 68 89 0.0 0.0 0.00 0.54 0.54 92 1017.4
20260906015700 68 90 0.0 0.0 0.00 0.54 0.54 92 1017.4
20260906015158 68 113 0.0 0.0 0.00 0.54 0.54 92 1017.1
20260906014658 68 76 0.0 0.0 0.00 0.54 0.54 92 1017.2
20260906014154 68 81 0.0 0.0 0.00 0.54 0.54 92 1017.2
20260906013650 68 81 0.0 0.0 0.00 0.54 0.54 92 1017.7
20260906013145 68 82 0.0 0.0 0.00 0.54 0.54 92 1017.5
20260906012646 69 81 0.0 0.0 0.00 0.54 0.54 92 1017.3
20260906012145 69 81 0.0 0.0 0.00 0.54 0.54 92 1017.2
20260906011641 69 80 0.0 0.0 0.00 0.54 0.54 92 1017.3
20260906011136 69 90 0.0 0.0 0.00 0.54 0.54 92 1017.2
20260906010631 69 82 0.0 0.0 0.00 0.54 0.54 92 1017.3
20260906010128 69 82 0.0 0.0 0.00 0.54 0.54 92 1017.2
20260906005627 69 82 0.0 0.0 0.00 0.54 0.54 92 1017.3
20260906005126 69 84 0.0 0.0 0.00 0.54 0.54 92 1017.3
20260906004626 70 81 0.0 0.0 0.00 0.54 0.54 92 1017.1
20260906004121 70 81 0.0 0.0 0.00 0.54 0.54 92 1016.9
20260906003616 70 81 0.0 0.0 0.00 0.54 0.54 92 1017.0
20260906003112 70 80 0.0 0.0 0.00 0.54 0.54 92 1016.9
20260906002612 70 92 0.0 0.0 0.00 0.54 0.54 92 1017.0
20260906002107 70 81 0.0 0.0 0.00 0.54 0.54 92 1016.7
20260906001603 71 89 0.0 0.0 0.00 0.54 0.54 92 1016.9
20260906001102 71 83 0.0 0.0 0.00 0.54 0.54 92 1016.8
20260906000559 71 84 0.0 0.0 0.00 0.54 0.54 92 1016.7
20260906000053 71 75 0.0 0.0 0.00 0.54 0.54 92 1016.8
20260905235553 71 72 0.0 0.0 0.00 0.54 0.54 92 1016.7
20260905235048 72 98 0.0 0.0 0.00 0.54 0.54 92 1016.7
20260905234543 72 83 0.0 0.0 0.00 0.54 0.54 92 1016.4
20260905234039 72 83 0.0 0.0 0.00 0.54 0.54 92 1016.5
20260905233538 72 83 0.0 0.0 0.00 0.54 0.54 92 1016.6
20260905233038 72 89 0.0 0.0 0.00 0.54 0.54 92 1016.6
20260905232533 73 89 0.0 0.0 0.00 0.54 0.54 92 1016.7
20260905232029 73 89 0.0 0.0 0.00 0.54 0.54 92 1016.5
20260905231524 73 90 0.0 0.0 0.00 0.54 0.54 92 1016.3
20260905231021 73 89 0.0 0.0 0.00 0.54 0.54 92 1016.3
20260905230520 73 99 0.0 0.0 0.00 0.54 0.54 92 1016.1
20260905230018 73 90 0.0 0.0 0.00 0.54 0.54 92 1016.3
20260905225513 73 90 0.0 0.0 0.00 0.54 0.54 92 1015.8
20260905225008 73 90 0.0 0.0 0.00 0.54 0.54 92 1015.9
20260905224503 74 87 0.0 0.0 0.00 0.54 0.54 92 1016.1
20260905224002 74 94 0.0 0.0 0.00 0.54 0.54 92 1016.4
20260905223500 74 82 0.0 0.0 0.00 0.54 0.54 92 1016.4
20260905222955 74 112 0.0 0.0 0.00 0.54 0.54 91 1016.4
20260905222455 75 62 0.0 0.0 0.00 0.54 0.54 91 1016.3
20260905221950 75 81 0.0 0.0 0.00 0.54 0.54 90 1016.4
20260905221447 76 42 0.0 0.0 0.00 0.54 0.54 88 1016.3
20260905220943 77 72 0.0 0.0 0.00 0.54 0.54 86 1016.5
20260905220439 78 80 0.0 0.0 0.00 0.54 0.54 85 1016.5
20260905215938 78 90 0.0 0.0 0.00 0.54 0.54 83 1016.5
20260905215433 78 60 0.0 0.0 0.00 0.54 0.54 84 1016.6
20260905214930 77 85 0.0 0.0 0.00 0.54 0.54 85 1016.6
20260905214426 79 38 0.9 0.9 0.00 0.54 0.54 78 1016.6
20260905213925 78 66 0.0 0.9 0.00 0.54 0.54 76 1016.6
20260905213422 78 38 0.0 0.9 0.00 0.54 0.54 85 1016.4
20260905212917 78 76 0.0 0.9 0.00 0.54 0.54 82 1016.6
20260905212412 79 84 0.0 0.0 0.00 0.54 0.54 83 1016.6
20260905211911 78 83 0.0 0.0 0.00 0.54 0.54 84 1016.8
20260905211406 79 113 0.0 0.9 0.00 0.54 0.54 84 1017.0
20260905210903 78 123 0.0 0.9 0.00 0.54 0.54 78 1017.0
20260905210402 77 49 0.0 0.0 0.00 0.54 0.54 86 1017.0
20260905205902 77 44 0.9 1.7 0.00 0.54 0.54 84 1017.1
20260905205356 77 85 0.0 0.0 0.00 0.54 0.54 86 1017.0
20260905204855 78 106 0.0 0.0 0.00 0.54 0.54 85 1017.1
20260905204352 77 282 0.9 1.7 0.00 0.54 0.54 81 1017.2
20260905203850 77 99 0.0 0.0 0.00 0.54 0.54 86 1016.9
20260905203347 76 98 0.0 0.0 0.00 0.54 0.54 83 1017.1
20260905202843 75 73 0.0 0.0 0.00 0.54 0.54 90 1017.2
20260905202342 73 39 0.0 2.6 0.00 0.54 0.54 90 1017.3
20260905201839 73 130 0.0 0.0 0.00 0.54 0.54 92 1017.5
20260905201334 72 233 0.0 0.0 0.00 0.54 0.54 92 1017.7
20260905200833 71 54 0.0 0.0 0.00 0.54 0.54 92 1017.5
20260905200330 72 19 0.0 1.7 0.00 0.54 0.54 92 1017.5
20260905195827 72 46 0.0 0.0 0.00 0.54 0.54 92 1017.5
20260905195323 72 0 0.0 0.0 0.00 0.54 0.54 92 1017.7
20260905194819 72 86 0.0 0.0 0.00 0.54 0.54 92 1017.5
20260905194318 71 25 0.0 0.0 0.00 0.54 0.54 92 1017.7
20260905193818 71 1 0.0 1.7 0.00 0.54 0.54 92 1017.5
20260905193313 71 49 0.0 0.0 0.00 0.54 0.54 92 1017.4
20260905192808 71 87 0.0 0.0 0.00 0.54 0.54 92 1017.4
20260905192306 71 54 0.0 0.0 0.00 0.54 0.54 92 1017.7
20260905191803 70 42 0.0 1.7 0.00 0.54 0.54 92 1017.8
20260905191302 70 94 0.0 0.0 0.00 0.54 0.54 92 1017.5
20260905190801 70 29 0.0 0.0 0.00 0.54 0.54 92 1017.7
20260905190255 69 76 0.0 0.0 0.00 0.54 0.54 92 1017.7
20260905185754 69 95 0.0 0.0 0.00 0.54 0.54 92 1017.7
20260905185249 69 93 0.0 0.0 0.00 0.54 0.54 92 1017.9
20260905184748 69 117 0.0 0.0 0.00 0.54 0.54 92 1018.3
20260905184247 69 72 0.0 0.0 0.00 0.54 0.54 92 1018.4
20260905183747 69 45 0.0 1.7 0.00 0.54 0.54 92 1018.4
20260905183243 70 315 3.5 6.1 0.00 0.54 0.54 92 1018.2
20260905182742 70 76 0.0 0.0 0.05 0.54 0.54 92 1018.1
20260905182242 70 79 0.0 0.0 0.12 0.54 0.54 92 1018.5
20260905181737 70 84 0.0 0.0 0.07 0.53 0.53 92 1018.7
20260905181236 70 42 0.0 0.0 0.05 0.52 0.52 92 1019.0
20260905180731 70 79 0.0 0.0 0.54 0.52 0.52 92 1018.8
20260905180227 71 195 0.0 0.0 1.18 0.49 0.49 92 1018.8
20260905175726 73 190 1.7 5.2 2.06 0.42 0.42 90 1019.1
20260905175221 77 73 0.0 4.3 0.59 0.17 0.17 87 1018.7
20260905174716 82 57 0.0 1.7 0.00 0.07 0.07 77 1017.9
20260905174212 83 115 0.0 0.9 0.00 0.07 0.07 80 1017.9
20260905173709 82 85 0.0 0.0 0.00 0.07 0.07 78 1018.0
20260905173204 81 94 0.0 0.0 0.00 0.07 0.07 80 1017.5
20260905172703 81 117 0.0 0.0 0.00 0.07 0.07 82 1018.2
20260905172203 81 83 0.0 0.0 0.00 0.07 0.07 80 1018.4
20260905171659 81 106 0.0 0.0 0.00 0.07 0.07 81 1018.2
20260905171154 84 90 0.0 0.0 0.00 0.07 0.07 76 1018.4
20260905170653 84 78 0.0 0.0 0.00 0.07 0.07 71 1018.3
20260905170152 84 124 0.0 0.9 0.00 0.07 0.07 74 1018.1
20260905165652 82 115 0.0 0.9 0.00 0.07 0.07 73 1018.1
20260905165147 83 94 0.0 0.0 0.00 0.07 0.07 74 1018.1
20260905164642 87 75 0.0 0.0 0.00 0.07 0.07 68 1018.2
20260905164141 87 111 0.9 0.9 0.00 0.07 0.07 67 1018.4
20260905163637 86 14 0.0 0.9 0.00 0.07 0.07 62 1018.3
20260905163134 87 114 0.0 0.0 0.00 0.07 0.07 69 1018.5
20260905162630 84 144 0.0 0.0 0.00 0.07 0.07 65 1018.5
20260905162129 85 226 0.9 0.9 0.00 0.07 0.07 69 1018.7
20260905161628 87 142 0.0 0.9 0.00 0.07 0.07 71 1018.8
20260905161126 87 135 0.9 0.9 0.00 0.07 0.07 68 1018.8
20260905160621 88 92 0.0 0.0 0.00 0.07 0.07 65 1018.8
20260905160121 87 82 0.0 0.0 0.00 0.07 0.07 70 1018.8
20260905155620 86 139 0.0 1.7 0.00 0.07 0.07 74 1019.0
20260905155120 86 144 0.0 0.9 0.00 0.07 0.07 63 1018.7
20260905154620 86 77 0.0 4.3 0.00 0.07 0.07 66 1019.0
20260905154115 86 151 0.0 0.0 0.00 0.07 0.07 74 1019.0
20260905153611 86 79 0.0 0.0 0.00 0.07 0.07 72 1018.7
20260905153106 84 87 0.0 0.0 0.00 0.07 0.07 76 1018.8
20260905152601 85 78 0.0 0.9 0.42 0.07 0.07 75 1019.0
20260905152055 86 147 0.0 0.9 0.42 0.07 0.07 74 1018.8
20260905151551 89 334 0.0 0.0 0.00 0.00 0.00 70 1018.8
20260905151046 87 333 0.0 0.0 0.00 0.00 0.00 69 1018.8
20260905150541 88 333 0.0 0.0 0.00 0.00 0.00 73 1018.7
20260905150039 87 349 0.0 0.0 0.00 0.00 0.00 70 1018.7
20260905145532 87 335 0.0 0.0 0.00 0.00 0.00 69 1018.7
20260905145032 88 333 0.0 0.0 0.00 0.00 0.00 72 1018.7
20260905144527 87 333 0.0 0.0 0.00 0.00 0.00 68 1018.7
20260905144026 84 333 0.0 0.0 0.00 0.00 0.00 75 1018.8
20260905143526 86 333 0.0 0.0 0.00 0.00 0.00 72 1019.0
20260905143021 85 333 0.0 0.0 0.00 0.00 0.00 73 1018.8
20260905142519 85 333 0.0 0.0 0.00 0.00 0.00 72 1019.2
20260905142015 84 334 0.0 0.0 0.00 0.00 0.00 75 1019.1
20260905141515 84 334 0.0 0.0 0.00 0.00 0.00 73 1019.1
20260905141012 82 333 0.0 0.0 0.00 0.00 0.00 77 1019.2
20260905140506 80 333 0.0 0.0 0.00 0.00 0.00 81 1018.8
20260905140005 81 333 0.0 0.0 0.00 0.00 0.00 78 1019.1
20260905135501 80 334 0.0 0.0 0.00 0.00 0.00 80 1019.0
20260905134956 79 332 0.0 0.0 0.00 0.00 0.00 82 1019.2
20260905134455 79 334 0.0 0.0 0.00 0.00 0.00 82 1019.4
20260905133954 77 335 0.0 0.0 0.00 0.00 0.00 86 1019.2
20260905133450 76 334 0.0 0.0 0.00 0.00 0.00 87 1019.3
20260905132949 73 335 0.0 0.0 0.00 0.00 0.00 92 1019.1
20260905132444 72 335 0.0 0.0 0.00 0.00 0.00 92 1019.3
20260905131939 72 335 0.0 0.0 0.00 0.00 0.00 92 1019.3
20260905131435 71 336 0.0 0.0 0.00 0.00 0.00 92 1019.3
20260905130930 70 336 0.0 0.0 0.00 0.00 0.00 92 1019.5
20260905130429 70 336 0.0 0.0 0.00 0.00 0.00 92 1019.5
20260905125929 70 335 0.0 0.0 0.00 0.00 0.00 92 1019.6
20260905125424 69 335 0.0 0.0 0.00 0.00 0.00 92 1019.3
20260905124919 69 336 0.0 0.0 0.00 0.00 0.00 92 1019.3
20260905124416 68 336 0.0 0.0 0.00 0.00 0.00 92 1019.3
20260905123916 68 336 0.0 0.0 0.00 0.00 0.00 92 1019.5
20260905123413 68 336 0.0 0.0 0.00 0.00 0.00 92 1019.5
20260905122908 68 336 0.0 0.0 0.00 0.00 0.00 92 1019.5
20260905122407 67 336 0.0 0.0 0.00 0.00 0.00 92 1019.2
20260905121902 67 337 0.0 0.0 0.00 0.00 0.00 92 1019.3
20260905121358 67 336 0.0 0.0 0.00 0.00 0.00 92 1019.2
20260905120858 67 336 0.0 0.0 0.00 0.00 0.00 92 1019.1
20260905120357 67 336 0.0 0.0 0.00 0.00 0.00 92 1019.1
20260905115853 67 336 0.0 0.0 0.00 0.00 0.00 92 1019.1
20260905115352 66 336 0.0 0.0 0.00 0.00 0.00 92 1019.1
20260905114847 66 336 0.0 0.0 0.00 0.00 0.00 92 1019.1
20260905114346 66 337 0.0 0.0 0.00 0.00 0.00 92 1019.1
20260905113845 66 337 0.0 0.0 0.00 0.00 0.00 92 1019.0
20260905113341 66 336 0.0 0.0 0.00 0.00 0.00 92 1019.0
20260905112836 66 336 0.0 0.0 0.00 0.00 0.00 92 1019.0
20260905112332 66 336 0.0 0.0 0.00 0.00 0.00 92 1018.8
20260905111827 66 336 0.0 0.0 0.00 0.00 0.00 92 1019.0
20260905111327 66 336 0.0 0.0 0.00 0.00 0.00 92 1018.5
20260905110826 66 337 0.0 0.0 0.00 0.00 0.00 92 1018.7
20260905110325 66 336 0.0 0.0 0.00 0.00 0.00 92 1018.4
20260905105821 66 336 0.0 0.0 0.00 0.00 0.00 92 1018.4
20260905105320 66 336 0.0 0.0 0.00 0.00 0.00 92 1018.3
20260905104814 66 336 0.0 0.0 0.00 0.00 0.00 92 1018.3
20260905104312 66 335 0.0 0.0 0.00 0.00 0.00 92 1018.1
20260905103811 66 336 0.0 0.0 0.00 0.00 0.00 92 1018.2
20260905103306 66 336 0.0 0.0 0.00 0.00 0.00 92 1018.0
20260905102802 66 335 0.0 0.0 0.00 0.00 0.00 92 1018.1
20260905102259 66 336 0.0 0.0 0.00 0.00 0.00 92 1018.2
20260905101758 67 336 0.0 0.0 0.00 0.00 0.00 92 1018.2
20260905101257 67 336 0.0 0.0 0.00 0.00 0.00 92 1017.9
20260905100751 67 336 0.0 0.0 0.00 0.00 0.00 92 1017.7
20260905100248 67 336 0.0 0.0 0.00 0.00 0.00 92 1018.0
20260905095747 67 336 0.0 0.0 0.00 0.00 0.00 92 1018.0
20260905095246 67 336 0.0 0.0 0.00 0.00 0.00 92 1018.1
20260905094741 67 336 0.0 0.0 0.00 0.00 0.00 92 1018.0
20260905094237 67 336 0.0 0.0 0.00 0.00 0.00 92 1018.1
20260905093736 67 336 0.0 0.0 0.00 0.00 0.00 92 1018.0
20260905093232 67 336 0.0 0.0 0.00 0.00 0.00 92 1018.2
20260905092727 67 336 0.0 0.0 0.00 0.00 0.00 92 1018.1
20260905092223 67 336 0.0 0.0 0.00 0.00 0.00 92 1018.2
20260905091722 67 336 0.0 0.0 0.00 0.00 0.00 92 1018.1
20260905091217 67 336 0.0 0.0 0.00 0.00 0.00 92 1018.4
20260905090716 67 336 0.0 0.0 0.00 0.00 0.00 92 1018.4
20260905090213 67 336 0.0 0.0 0.00 0.00 0.00 92 1018.4
20260905085711 67 336 0.0 0.0 0.00 0.00 0.00 92 1018.1
20260905085207 68 336 0.0 0.0 0.00 0.00 0.00 92 1018.2
20260905084706 68 336 0.0 0.0 0.00 0.00 0.00 92 1018.3
20260905084201 68 336 0.0 0.0 0.00 0.00 0.00 92 1018.4
20260905083701 68 336 0.0 0.0 0.00 0.00 0.00 92 1018.5
20260905083157 68 336 0.0 0.0 0.00 0.00 0.00 92 1018.6
20260905082653 68 336 0.0 0.0 0.00 0.00 0.00 92 1018.6
20260905082149 68 336 0.0 0.0 0.00 0.00 0.00 92 1018.8
20260905081649 68 336 0.0 0.0 0.00 0.00 0.00 92 1018.8
20260905081144 68 336 0.0 0.0 0.00 0.00 0.00 92 1018.7
20260905080638 68 337 0.0 0.0 0.00 0.00 0.00 92 1019.0
20260905080138 68 336 0.0 0.0 0.00 0.00 0.00 92 1018.6
20260905075637 68 335 0.0 0.0 0.00 0.00 0.00 92 1018.7
20260905075136 68 335 0.0 0.0 0.00 0.00 0.00 92 1019.2
20260905074635 68 335 0.0 0.0 0.00 0.00 0.00 92 1019.1
20260905074131 68 335 0.0 0.0 0.00 0.00 0.00 92 1019.1
20260905073627 68 335 0.0 0.0 0.00 0.00 0.00 92 1019.1
20260905073128 68 335 0.0 0.0 0.00 0.00 0.00 92 1018.7
20260905072626 68 336 0.0 0.0 0.00 0.00 0.00 92 1018.8
20260905072122 68 336 0.0 0.0 0.00 0.00 0.00 92 1019.2
20260905071619 68 335 0.0 0.0 0.00 0.00 0.00 92 1018.7
20260905071114 68 335 0.0 0.0 0.00 0.00 0.00 92 1019.2
20260905070609 68 335 0.0 0.0 0.00 0.00 0.00 92 1019.0
20260905070105 68 335 0.0 0.0 0.00 0.00 0.00 92 1019.4
20260905065603 68 335 0.0 0.0 0.00 0.00 0.00 92 1019.2
20260905065059 68 335 0.0 0.0 0.00 0.00 0.00 92 1019.2
20260905064559 69 335 0.0 0.0 0.00 0.00 0.00 92 1019.3
20260905064055 69 335 0.0 0.0 0.00 0.00 0.00 92 1019.4
20260905063553 69 336 0.0 0.0 0.00 0.00 0.00 92 1019.5
20260905063050 69 336 0.0 0.0 0.00 0.00 0.00 92 1019.2
20260905062545 69 336 0.0 0.0 0.00 0.00 0.00 92 1019.3
20260905062044 69 336 0.0 0.0 0.00 0.00 0.00 92 1019.2
20260905061539 69 336 0.0 0.0 0.00 0.00 0.00 92 1019.4
20260905061038 69 337 0.0 0.0 0.00 0.00 0.00 92 1019.4
20260905060535 69 335 0.0 0.0 0.00 0.00 0.00 92 1019.2
20260905060030 69 335 0.0 0.0 0.00 0.00 0.00 92 1019.5
20260905055529 69 335 0.0 0.0 0.00 0.00 0.00 92 1019.7
20260905055024 69 335 0.0 0.0 0.00 0.00 0.00 92 1019.8
20260905054520 69 336 0.0 0.0 0.00 0.00 0.00 92 1019.9
20260905054015 69 335 0.0 0.0 0.00 0.00 0.00 92 1019.8
20260905053509 69 336 0.0 0.0 0.00 0.00 0.00 92 1019.9
20260905053005 69 336 0.0 0.0 0.00 0.00 0.00 92 1019.9